User: anonymous   Login
Location: Oshawa
(43.9000°N, 78.8670°W)
Time: 23:09:25
(UTC-04:00)
Language:

CZ-4C R/B - Orbit

View from above orbital plane
View from above orbital plane
View from above satellite
View from above satellite

Ground track
Ground track

The orbit data is extracted from the following two-line orbital elements,

1 32290U 07055B   15090.30631692  .00012612  00000-0  43251-3 0  9998
2 32290 097.5456 172.5853 0081407 122.6756 310.6198 15.27121862408010
Epoch (UTC): 31 March 2015 07:21:05
Eccentricity: 0.0081407
inclination: 97.5456°
perigee height: 428 km
apogee height: 540 km
right ascension of ascending node: 172.5853°
argument of perigee: 122.6756°
revolutions per day: 15.27121862
mean anomaly at epoch: 310.6198°
orbit number at epoch: 40801

The dashed part of the orbit path shows where the satellite is in the earth's shadow,  

DLR